[[{"header":{"parameterUnit":"m.s-1","parameterCategory":1,"la1":30.2992,"la2":30.254,"lo1":-89.0895,"lo2":-89.0443,"dy":0.0025,"dx":0.0025,"nx":19,"ny":19,"refTime":"2026-04-02T03:00:00:Z","depth":0,"parameterNumber":2,"parameterNumberName":"U-component_of_WINDS"},"data":[0,0,0,-4.7191,-4.7194,-4.7321,-4.7322,-4.7487,-4.7488,0,0,0,0,0,0,0,0,0,0,0,-4.7154,-4.7155,-4.7191,-4.7194,-4.7321,-4.7322,-4.7486,-4.7488,0,0,0,0,0,0,0,0,0,0,0,-4.7153,-4.7155,-4.7156,-4.7194,-4.7321,-4.7322,-4.7486,-4.7389,0,0,0,0,0,0,0,0,0,0,-4.7265,-4.7231,-4.7154,-4.7156,-4.7195,-4.7321,-4.7322,-4.7384,-4.7395,-4.7429,0,-4.746,0,-4.7477,-4.7499,-4.75,0,0,0,-4.7193,-4.7222,-4.7256,-4.7156,-4.7196,-4.7321,-4.7263,-4.739,-4.7402,-4.7444,-4.7463,-4.7469,-4.748,-4.75,-4.7501,-4.7703,-4.7704,0,0,-4.7186,-4.7177,-4.7248,-4.7264,-4.7245,-4.7259,-4.7267,-4.7398,-4.7417,-4.7463,-4.7472,-4.7482,-4.7501,-4.7503,-4.7702,-4.7703,0,0,0,-4.7166,-4.7172,-4.7203,-4.7258,-4.728,-4.7263,-4.7272,-4.7412,-4.7422,-4.7474,-4.7484,-4.7502,-4.7504,-4.7701,-4.7702,-4.774,0,0,0,-4.7162,-4.7161,-4.72,-4.7195,-4.7278,-4.7348,-4.7283,-4.7413,-4.7428,-4.7483,-4.7502,-4.7506,-4.77,-4.7701,-4.7737,-4.7759,0,0,0,-4.7145,-4.7159,-4.7177,-4.7195,-4.7249,-4.7346,-4.7364,-4.7417,-4.7435,-4.75,-4.7506,-4.7699,-4.7701,-4.7734,-4.7754,-4.7808,0,0,0,-4.7124,-4.7209,-4.7178,-4.7277,-4.7248,-4.7369,-4.7363,-4.7454,-4.7515,-4.7503,-4.77,-4.7702,-4.7733,-4.7751,-4.7805,-4.785,-4.7868,0,0,-4.7226,-4.7221,-4.7281,-4.7256,-4.738,-4.7351,-4.7481,-4.7545,-4.756,-4.7654,-4.7659,-4.7738,-4.7753,-4.7807,-4.7981,-4.7996,0,0,0,-4.731,-4.7352,-4.7387,-4.7445,-4.7497,-4.7543,-4.7589,-4.7613,-4.7694,-4.7606,-4.7774,-4.7784,-4.7815,-4.7837,-4.785,-4.7877,-4.7713,-4.7712,-4.7712,-4.7438,-4.7454,-4.7553,-4.7584,-4.7641,-4.7689,-4.7736,-4.7776,-4.7775,-4.7815,-4.7841,-4.7945,-4.797,-4.798,-4.8008,-4.7869,-4.7869,-4.7869,-4.7869,-4.7587,-4.7648,-4.7647,-4.7742,-4.7758,-4.7839,-4.7889,-4.7886,-4.7963,-4.7926,-4.7954,-4.7909,-4.7995,-4.8021,-4.7872,-4.7872,-4.7872,-4.7871,-4.7871,-4.767,-4.7702,-4.7732,-4.7818,-4.7884,-4.7914,-4.7988,-4.8001,-4.8014,-4.8043,-4.8072,-4.8071,-4.807,-4.8056,-4.8057,-4.8057,-4.8057,-4.8058,-4.8058,-4.7743,-4.7775,-4.7836,-4.7901,-4.7941,-4.7995,-4.8046,-4.8086,-4.8132,-4.8136,-4.8136,-4.813,-4.8002,-4.7968,-4.8063,-4.8062,-4.8062,-4.8061,-4.8061,-4.7882,-4.7853,-4.7947,-4.7987,-4.8065,-4.8129,-4.8147,-4.8226,-4.8261,-4.8298,-4.8288,-4.8192,-4.8187,-4.8177,-4.8148,-4.8285,-4.8285,-4.8285,-4.8285,-4.7949,-4.7949,-4.8049,-4.8112,-4.8176,-4.8202,-4.8308,-4.835,-4.8389,-4.8412,-4.8395,-4.836,-4.835,-4.8351,-4.8337,-4.831,-4.8485,-4.8485,-4.8486,-4.8034,-4.8042,-4.8128,-4.8167,-4.823,-4.8284,-4.8383,-4.8456,-4.8495,-4.8494,-4.843,-4.8421,-4.8365,-4.8346,-4.8338,-4.8316,-4.8268,0,0]},{"header":{"parameterUnit":"m.s-1","parameterCategory":1,"la1":30.2992,"la2":30.254,"lo1":-89.0895,"lo2":-89.0443,"dy":0.0025,"dx":0.0025,"nx":19,"ny":19,"refTime":"2026-04-02T03:00:00:Z","depth":0,"parameterNumber":3,"parameterNumberName":"V-component_of_WINDS"},"data":[0,0,0,3.3714,3.3716,3.3778,3.3778,3.3857,3.3858,0,0,0,0,0,0,0,0,0,0,0,3.3696,3.3696,3.3714,3.3716,3.3778,3.3778,3.3857,3.3858,0,0,0,0,0,0,0,0,0,0,0,3.3695,3.3696,3.3697,3.3716,3.3778,3.3778,3.3857,3.381,0,0,0,0,0,0,0,0,0,0,3.375,3.3732,3.3696,3.3697,3.3716,3.3778,3.3778,3.3808,3.3813,3.3829,0,3.3843,0,3.3852,3.3863,3.3864,0,0,0,3.3716,3.3728,3.3745,3.3697,3.3717,3.3778,3.375,3.3811,3.3817,3.3836,3.3845,3.3847,3.3853,3.3864,3.3864,3.3961,3.3961,0,0,3.3712,3.3706,3.3741,3.3749,3.374,3.3748,3.3752,3.3814,3.3823,3.3845,3.3849,3.3855,3.3864,3.3865,3.396,3.3961,0,0,0,3.3703,3.3704,3.372,3.3746,3.3757,3.375,3.3754,3.382,3.3826,3.385,3.3856,3.3865,3.3866,3.396,3.396,3.398,0,0,0,3.37,3.3698,3.3718,3.3715,3.3756,3.3789,3.3758,3.3822,3.3829,3.3855,3.3865,3.3867,3.3959,3.396,3.3978,3.3989,0,0,0,3.3692,3.3697,3.3706,3.3715,3.3741,3.3788,3.3798,3.3823,3.3832,3.3864,3.3867,3.3959,3.396,3.3976,3.3987,3.4016,0,0,0,3.368,3.3719,3.3706,3.3753,3.3741,3.38,3.3797,3.3841,3.387,3.3865,3.3959,3.396,3.3976,3.3985,3.4014,3.404,3.4049,0,0,3.3726,3.3725,3.3753,3.3743,3.3803,3.3791,3.3854,3.3884,3.3892,3.3937,3.394,3.3978,3.3987,3.4015,3.4103,3.4111,0,0,0,3.3765,3.3786,3.3803,3.3832,3.3858,3.3882,3.3905,3.3917,3.3957,3.3914,3.3996,3.4001,3.4018,3.403,3.4037,3.4053,3.3965,3.3965,3.3965,3.3821,3.3832,3.388,3.3898,3.3926,3.3952,3.3976,3.3997,3.3995,3.4015,3.4029,3.4081,3.4095,3.41,3.4117,3.4042,3.4042,3.4042,3.4042,3.3892,3.3923,3.3926,3.3973,3.3984,3.4024,3.4051,3.405,3.4089,3.407,3.4086,3.4066,3.4109,3.4124,3.4043,3.4043,3.4043,3.4043,3.4043,3.3931,3.3948,3.3964,3.401,3.4044,3.4061,3.4101,3.4108,3.4115,3.413,3.4148,3.4148,3.415,3.4138,3.4138,3.4138,3.4139,3.4139,3.4139,3.3966,3.3984,3.4016,3.4051,3.4073,3.4102,3.4131,3.4152,3.4178,3.4181,3.4181,3.418,3.4111,3.4094,3.4142,3.4141,3.4141,3.4141,3.414,3.4036,3.4023,3.4073,3.4095,3.4139,3.4175,3.4184,3.4229,3.4247,3.4267,3.4264,3.4211,3.4209,3.4204,3.4191,3.426,3.426,3.426,3.426,3.407,3.4071,3.4127,3.4163,3.4199,3.4214,3.4274,3.4297,3.4319,3.4332,3.4323,3.4305,3.43,3.4301,3.4294,3.4282,3.4373,3.4374,3.4374,3.4116,3.4121,3.4169,3.4193,3.4229,3.4259,3.4316,3.4358,3.438,3.4378,3.4343,3.4338,3.431,3.43,3.4297,3.4286,3.4263,0,0]}]]